This demonstration page uses our WeatherBlox Daily Observations layout. Learn more.

Left ArrowRight Arrow

39.51506, -84.39828

Hourly Observations for May 22, 2016

Temp ( °F °C ) Dew Point ( °F °C ) Humidity (%) Winds ( mph kmh ) Pressure ( in mb ) Visibility ( mi km ) Precip ( " mm )
12:15 am 00:15 Hazy 52 11.3 47 8.5 83 83 N N/A 30.03 1017 2 3.21868 N/A
12:35 am 00:35 Hazy 52 11 47 8.3 84 84 N N/A 30.03 1017 5 8.0467 N/A
12:55 am 00:55 Clear 50 10.2 46 7.5 84 84 N N/A 30.03 1017 10 16.0934 N/A
1:15 am 01:15 Clear 49 9.7 45 7.2 85 85 N N/A 30.03 1017 7 11.26538 N/A
1:35 am 01:35 Clear 49 9.6 45 7 84 84 N N/A 30.03 1017 7 11.26538 N/A
1:55 am 01:55 Clear 49 9.6 45 7 84 84 N N/A 30.03 1017 10 16.0934 N/A
2:15 am 02:15 Clear with Mist and Fog 49 9.6 45 7 84 84 N N/A 30.03 1017 5 8.0467 N/A
2:35 am 02:35 Mostly Cloudy with Mist and Fog 49 9.6 45 7 84 84 N N/A 30.03 1017 1.75 2.816345 N/A
2:55 am 02:55 Clear with Mist and Fog 49 9.6 45 7.1 85 85 N N/A 30.03 1017 5 8.0467 N/A
3:15 am 03:15 Clear 49 9.6 45 7 84 84 N N/A 30.03 1017 7 11.26538 N/A
3:35 am 03:35 Clear with Mist and Fog 49 9.6 45 7.1 85 85 N N/A 30.03 1017 4 6.43736 N/A
3:55 am 03:55 Clear with Mist and Fog 49 9.6 45 7.2 85 85 N N/A 30.03 1017 4 6.43736 N/A
4:15 am 04:15 Cloudy with Fog 49 9.6 45 7.2 85 85 N N/A 30.03 1017 0.5 0.80467 N/A
4:35 am 04:35 Cloudy with Fog 49 9.6 45 7.2 85 85 N N/A 30.03 1017 5 8.0467 N/A
4:55 am 04:55 Mostly Cloudy with Fog 45 7.4 41 5 85 85 N N/A 30.03 1017 0.25 0.402335 N/A
5:15 am 05:15 Mostly Cloudy with Fog 46 7.9 42 5.5 85 85 N N/A 30.03 1017 0.25 0.402335 N/A
5:35 am 05:35 Cloudy with Fog 46 7.9 42 5.4 84 84 N N/A 30.03 1017 0.25 0.402335 N/A
5:55 am 05:55 Mostly Cloudy with Haze 44 6.4 39 4 85 85 N N/A 30.03 1017 0.25 0.402335 N/A
6:15 am 06:15 Mostly Cloudy with Fog 43 6.2 39 3.7 84 84 N N/A 30.03 1017 0.25 0.402335 N/A
6:35 am 06:35 Mostly Cloudy with Haze 46 8 42 5.6 85 85 N N/A 30.03 1017 0.25 0.402335 N/A
6:55 am 06:55 Mostly Cloudy with Haze 45 7 40 4.6 85 85 N N/A 30.06 1018 5 8.0467 N/A
7:15 am 07:15 Mostly Cloudy with Mist and Fog 47 8.2 42 5.8 85 85 N N/A 30.06 1018 1.5 2.41401 N/A
7:35 am 07:35 Sunny with Mist and Fog 49 9.6 45 7.2 85 85 N N/A 30.06 1018 3 4.82802 N/A
7:55 am 07:55 Sunny 49 9.6 45 7.2 85 85 N N/A 30.06 1018 7 11.26538 N/A
8:15 am 08:15 Sunny 52 11 47 8.5 85 85 N N/A 30.06 1018 10 16.0934 N/A
8:35 am 08:35 Sunny 55 12.5 50 10 85 85 N N/A 30.06 1018 10 16.0934 N/A
8:55 am 08:55 Sunny 55 12.5 50 10 85 85 N N/A 30.06 1018 10 16.0934 N/A
9:15 am 09:15 Sunny 56 13.6 51 10.8 83 83 N N/A 30.06 1018 10 16.0934 N/A
9:35 am 09:35 Partly Cloudy 57 13.9 50 10.2 79 79 N N/A 30.06 1018 10 16.0934 N/A
9:55 am 09:55 Partly Cloudy 64 17.9 46 7.7 51 51 N 5 7 30 1016 10 16.0934 N/A
10:15 am 10:15 Partly Cloudy 69 20.4 46 7.9 45 45 N 6 9 30.03 1017 10 16.0934 N/A
10:35 am 10:35 Sunny 69 20.8 44 6.4 39 39 NW 5 7 30 1016 10 16.0934 N/A
10:55 am 10:55 Sunny 69 20.8 42 5.4 37 37 NW 6 9 30 1016 10 16.0934 N/A
11:15 am 11:15 Partly Cloudy 70 20.9 42 5.3 36 36 NW 6 9 30 1016 10 16.0934 N/A
11:35 am 11:35 Mostly Cloudy 74 23.6 44 6.4 33 33 NNW 5 7 30 1016 10 16.0934 N/A
11:55 am 11:55 Partly Cloudy 74 23.6 42 5.4 31 31 NW 5 7 30 1016 10 16.0934 N/A
12:15 pm 12:15 Sunny 74 23.6 37 2.8 26 26 NNW 9 15 30 1016 10 16.0934 N/A
12:35 pm 12:35 Sunny 74 23.6 34 1.3 23 23 NW 12 19 30 1016 10 16.0934 N/A
12:55 pm 12:55 Sunny 74 23.6 33 0.6 22 22 NNW 13 20 29.97 1015 10 16.0934 N/A
1:15 pm 13:15 Partly Cloudy 76 24.4 33 0.6 21 21 NNW 15 24 29.97 1015 10 16.0934 N/A
1:35 pm 13:35 Partly Cloudy 77 25.1 33 0.7 20 20 NW 17 28 29.97 1015 10 16.0934 N/A
1:55 pm 13:55 Partly Cloudy 77 25 33 0.4 20 20 N 16 26 29.97 1015 10 16.0934 N/A
2:15 pm 14:15 Partly Cloudy 77 25.1 34 1 21 21 NNW 15 24 29.97 1015 10 16.0934 N/A
2:35 pm 14:35 Sunny 77 25.1 36 2 22 22 N 16 26 29.97 1015 10 16.0934 N/A
2:55 pm 14:55 Sunny 77 25.1 35 1.9 22 22 NW 15 24 29.97 1015 10 16.0934 N/A
3:15 pm 15:15 Sunny 77 25.1 33 0.6 20 20 NNW 17 28 29.97 1015 10 16.0934 N/A
3:35 pm 15:35 Partly Cloudy 77 25.1 34 1 21 21 NNW 12 19 29.94 1014 10 16.0934 N/A
3:55 pm 15:55 Partly Cloudy 77 25.1 33 0.3 20 20 N 15 24 29.94 1014 10 16.0934 N/A
4:15 pm 16:15 Sunny 77 25.1 34 0.9 20 20 N 12 19 29.94 1014 10 16.0934 N/A
4:35 pm 16:35 Sunny 77 25.1 33 0.3 20 20 NNE 18 30 29.94 1014 10 16.0934 N/A
4:55 pm 16:55 Sunny 77 25.1 31 -0.7 18 18 NNE 15 24 29.94 1014 10 16.0934 N/A
5:15 pm 17:15 Partly Cloudy 77 25.1 34 0.9 20 20 NNW 9 15 29.94 1014 10 16.0934 N/A
5:35 pm 17:35 Partly Cloudy 77 25.1 32 undefined 19 19 N 12 19 29.94 1014 10 16.0934 N/A
5:55 pm 17:55 Sunny 77 25.1 33 0.5 20 20 N 8 13 29.94 1014 10 16.0934 N/A
6:15 pm 18:15 Partly Cloudy 77 25.1 31 -0.4 19 19 N 10 17 29.94 1014 10 16.0934 N/A
6:35 pm 18:35 Sunny 77 25.1 31 -0.3 19 19 N 13 20 29.91 1013 10 16.0934 N/A
6:55 pm 18:55 Sunny 74 23.6 29 -1.9 18 18 N 12 19 29.91 1013 10 16.0934 N/A
7:15 pm 19:15 Sunny 74 23.6 29 -1.4 19 19 N 8 13 29.91 1013 10 16.0934 N/A
7:35 pm 19:35 Sunny 74 23.6 32 -0.1 21 21 N 6 9 29.91 1013 10 16.0934 N/A
7:55 pm 19:55 Sunny 74 23.6 35 1.7 24 24 NNE 7 11 29.94 1014 10 16.0934 N/A
8:15 pm 20:15 Sunny 72 22.3 40 4.6 32 32 NNE 7 11 29.94 1014 10 16.0934 N/A
8:35 pm 20:35 Sunny 69 20.8 42 5.5 37 37 N N/A 29.94 1014 10 16.0934 N/A
8:55 pm 20:55 Clear 69 20.8 43 6.1 39 39 N N/A 29.94 1014 10 16.0934 N/A
9:15 pm 21:15 Clear 62 16.8 47 8.5 58 58 N 3 6 29.94 1014 10 16.0934 N/A
9:35 pm 21:35 Clear 61 16.3 49 9.4 64 64 N N/A 29.94 1014 10 16.0934 N/A
9:55 pm 21:55 Clear 61 16 48 8.9 63 63 N N/A 29.97 1015 10 16.0934 N/A
10:15 pm 22:15 Clear 60 15.3 50 10.1 71 71 N 3 6 29.97 1015 10 16.0934 N/A
10:35 pm 22:35 Clear 60 15.3 50 10 71 71 N 3 6 29.97 1015 10 16.0934 N/A
10:55 pm 22:55 Clear 57 13.8 48 8.9 73 73 N 3 6 30 1016 10 16.0934 N/A
11:15 pm 23:15 Clear 57 13.8 49 9.4 75 75 N N/A 30 1016 10 16.0934 N/A
11:35 pm 23:35 Clear 56 13.5 48 9.1 75 75 N 3 6 30.03 1017 10 16.0934 N/A
11:55 pm 23:55 Clear 56 13.1 49 9.3 78 78 N N/A 30.03 1017 10 16.0934 N/A

Powered by AerisWeather